Rockwood, MI

8:15 PM EST on February 20, 2017 (GMT -0500)
Grosse Ile Municipal

Weather History for KONZ - May, 2013

Change the Weather History Date:

Sunday, May 5, 2013

  Actual Average (KDTW) Record (KDTW)
Temperature  
Mean Temperature 61 °F -  
Max Temperature 71 °F 68 °F 90 °F (1895)
Min Temperature 51 °F 44 °F 29 °F (1891)
Degree Days  
Heating Degree Days 4    
Growing Degree Days 11 (Base 50)    
Moisture  
Dew Point 38 °F    
Average Humidity 44    
Maximum Humidity 72    
Minimum Humidity 22    
Precipitation  
Precipitation 0.00 in - - ()
Sea Level Pressure  
Sea Level Pressure 30.06 in    
Wind  
Wind Speed 6 mph (East)    
Max Wind Speed 10 mph    
Max Gust Speed 17 mph    
Visibility 10 miles    
Events      
Averages and records for this station are not official NWS values.
T = Trace of Precipitation, MM = Missing Value Source: NWS Daily Summary

Daily Weather History Graph

Daily Weather History Graph

Search for Another Location

Airport or City:

Trip Planner

Search our weather history database for the weather conditions in past years. The results will help you decide how hot, cold, wet, or windy it might be!

Date:

Astronomy

May. 05, 2013 Rise Set
Actual Time 6:22 AM EDT 8:36 PM EDT
Civil Twilight 5:52 AM EDT 9:07 PM EDT
Nautical Twilight 5:13 AM EDT 9:45 PM EDT
Astronomical Twilight 4:31 AM EDT 10:27 PM EDT
Moon 3:57 AM EDT (5/5) 4:30 PM EDT (5/5)
Length of Visible Light 15h 15m
Length of Day
14h 13m
Waning Crescent, 18% of the Moon is Illuminated
May 5
Waning Crescent
May 9
New
May 18
First Quarter
May 25
Full
May 31
Last Quarter

Hourly Weather History & Observations

Time (EDT) Temp. Dew Point Humidity Pressure Visibility Wind Dir Wind Speed Gust Speed Precip Events Conditions
12:14 AM 60.8 °F 37.4 °F 42% 30.08 in 10.0 mi East 6.9 mph - N/A   Clear
12:34 AM 59.0 °F 37.4 °F 45% 30.08 in 10.0 mi East 8.1 mph - N/A   Clear
12:54 AM 57.2 °F 37.4 °F 48% 30.08 in 10.0 mi East 6.9 mph - N/A   Clear
1:14 AM 57.2 °F 39.2 °F 51% 30.08 in 10.0 mi East 8.1 mph - N/A   Clear
1:34 AM 57.2 °F 39.2 °F 51% 30.08 in 10.0 mi East 6.9 mph - N/A   Clear
1:54 AM 57.2 °F 39.2 °F 51% 30.08 in 10.0 mi East 6.9 mph - N/A   Clear
2:14 AM 55.4 °F 39.2 °F 54% 30.07 in 10.0 mi ENE 6.9 mph - N/A   Clear
2:34 AM 55.4 °F 39.2 °F 54% 30.07 in 10.0 mi ENE 5.8 mph - N/A   Clear
2:54 AM 55.4 °F 41.0 °F 58% 30.07 in 10.0 mi ENE 6.9 mph - N/A   Clear
3:14 AM 53.6 °F 42.8 °F 67% 30.07 in 10.0 mi ENE 5.8 mph - N/A   Clear
3:34 AM 53.6 °F 42.8 °F 67% 30.07 in 10.0 mi ENE 5.8 mph - N/A   Clear
3:53 AM 53.6 °F 42.8 °F 67% 30.07 in 10.0 mi ENE 3.5 mph - N/A   Clear
4:14 AM 53.6 °F 42.8 °F 67% 30.07 in 10.0 mi Calm Calm - N/A   Clear
4:34 AM 51.8 °F 42.8 °F 71% 30.07 in 10.0 mi ENE 3.5 mph - N/A   Clear
4:54 AM 51.8 °F 42.8 °F 71% 30.07 in 10.0 mi Calm Calm - N/A   Clear
5:14 AM 51.8 °F 42.8 °F 71% 30.07 in 10.0 mi East 4.6 mph - N/A   Clear
5:35 AM 53.6 °F 42.8 °F 67% 30.07 in 10.0 mi East 4.6 mph - N/A   Clear
5:54 AM 53.6 °F 42.8 °F 67% 30.07 in 10.0 mi East 4.6 mph - N/A   Clear
6:14 AM 55.4 °F 42.8 °F 63% 30.07 in 10.0 mi East 5.8 mph - N/A   Clear
6:34 AM 53.6 °F 42.8 °F 67% 30.08 in 10.0 mi Calm Calm - N/A   Clear
6:54 AM 53.6 °F 44.6 °F 72% 30.08 in 10.0 mi ENE 3.5 mph - N/A   Clear
7:15 AM 53.6 °F 44.6 °F 72% 30.09 in 10.0 mi ENE 3.5 mph - N/A   Clear
7:34 AM 55.4 °F 44.6 °F 67% 30.09 in 10.0 mi East 3.5 mph - N/A   Clear
7:54 AM 57.2 °F 44.6 °F 63% 30.09 in 10.0 mi East 5.8 mph - N/A   Clear
8:15 AM 57.2 °F 42.8 °F 59% 30.10 in 10.0 mi East 5.8 mph - N/A   Clear
8:34 AM 59.0 °F 42.8 °F 55% 30.10 in 10.0 mi ESE 6.9 mph - N/A   Clear
8:54 AM 60.8 °F 42.8 °F 52% 30.11 in 10.0 mi SE 9.2 mph - N/A   Clear
9:14 AM 60.8 °F 39.2 °F 45% 30.10 in 10.0 mi ESE 9.2 mph - N/A   Clear
9:34 AM 62.6 °F 41.0 °F 45% 30.11 in 10.0 mi ESE 6.9 mph - N/A   Clear
9:54 AM 62.6 °F 39.2 °F 42% 30.10 in 10.0 mi ESE 6.9 mph - N/A   Clear
10:14 AM 62.6 °F 33.8 °F 34% 30.10 in 10.0 mi SE 8.1 mph - N/A   Clear
10:34 AM 62.6 °F 32.0 °F 32% 30.10 in 10.0 mi SE 9.2 mph 17.3 mph N/A   Clear
10:54 AM 64.4 °F 35.6 °F 34% 30.10 in 10.0 mi SE 10.4 mph - N/A   Clear
11:14 AM 64.4 °F 35.6 °F 34% 30.10 in 10.0 mi ESE 9.2 mph - N/A   Clear
11:34 AM 64.4 °F 35.6 °F 34% 30.10 in 10.0 mi ESE 9.2 mph - N/A   Clear
12:00 PM 66.2 °F 37.4 °F 35% 30.10 in 10.0 mi ESE 9.2 mph - N/A   Clear
12:14 PM 66.2 °F 37.4 °F 35% 30.09 in 10.0 mi ESE 8.1 mph - N/A   Clear
12:34 PM 66.2 °F 37.4 °F 35% 30.09 in 10.0 mi ESE 9.2 mph - N/A   Clear
12:54 PM 66.2 °F 37.4 °F 35% 30.08 in 10.0 mi ESE 9.2 mph - N/A   Clear
1:14 PM 68.0 °F 37.4 °F 33% 30.07 in 10.0 mi East 6.9 mph - N/A   Clear
1:34 PM 68.0 °F 35.6 °F 30% 30.06 in 10.0 mi ESE 5.8 mph - N/A   Clear
2:14 PM 69.8 °F 37.4 °F 31% 30.06 in 10.0 mi East 8.1 mph - N/A   Clear
2:34 PM 69.8 °F 33.8 °F 27% 30.06 in 10.0 mi East 8.1 mph - N/A   Clear
2:54 PM 69.8 °F 33.8 °F 27% 30.06 in 10.0 mi ESE 8.1 mph - N/A   Clear
3:14 PM 69.8 °F 33.8 °F 27% 30.05 in 10.0 mi SSE 4.6 mph - N/A   Clear
3:34 PM 69.8 °F 30.2 °F 23% 30.05 in 10.0 mi East 10.4 mph - N/A   Clear
3:54 PM 69.8 °F 30.2 °F 23% 30.04 in 10.0 mi East 9.2 mph - N/A   Clear
4:34 PM 69.8 °F 33.8 °F 27% 30.03 in 10.0 mi East 10.4 mph - N/A   Clear
4:54 PM 71.6 °F 32.0 °F 23% 30.03 in 10.0 mi East 8.1 mph - N/A   Clear
5:14 PM 69.8 °F 30.2 °F 23% 30.02 in 10.0 mi East 9.2 mph - N/A   Scattered Clouds
5:34 PM 71.6 °F 32.0 °F 23% 30.02 in 10.0 mi East 10.4 mph - N/A   Clear
5:54 PM 71.6 °F 30.2 °F 22% 30.02 in 10.0 mi East 8.1 mph 16.1 mph N/A   Clear
6:14 PM 69.8 °F 30.2 °F 23% 30.02 in 10.0 mi ENE 9.2 mph - N/A   Clear
6:34 PM 69.8 °F 30.2 °F 23% 30.02 in 10.0 mi East 9.2 mph - N/A   Clear
6:54 PM 69.8 °F 30.2 °F 23% 30.01 in 10.0 mi East 9.2 mph - N/A   Clear
7:14 PM 69.8 °F 30.2 °F 23% 30.01 in 10.0 mi East 6.9 mph - N/A   Clear
7:35 PM 69.8 °F 30.2 °F 23% 30.01 in 10.0 mi East 5.8 mph - N/A   Clear
7:54 PM 68.0 °F 32.0 °F 26% 30.01 in 10.0 mi East 5.8 mph - N/A   Clear
8:14 PM 66.2 °F 33.8 °F 30% 30.01 in 10.0 mi East 4.6 mph - N/A   Clear
8:34 PM 66.2 °F 33.8 °F 30% 30.01 in 10.0 mi ENE 3.5 mph - N/A   Clear
8:54 PM 64.4 °F 35.6 °F 34% 30.02 in 10.0 mi ENE 3.5 mph - N/A   Clear
9:14 PM 64.4 °F 35.6 °F 34% 30.02 in 10.0 mi Calm Calm - N/A   Clear
9:34 PM 64.4 °F 37.4 °F 37% 30.02 in 10.0 mi Calm Calm - N/A   Clear
9:54 PM 62.6 °F 37.4 °F 39% 30.02 in 10.0 mi NNE 3.5 mph - N/A   Clear
10:34 PM 60.8 °F 37.4 °F 42% 30.03 in 10.0 mi NE 5.8 mph - N/A   Clear
10:54 PM 60.8 °F 39.2 °F 45% 30.03 in 10.0 mi NE 9.2 mph - N/A   Clear
11:14 PM 60.8 °F 42.8 °F 52% 30.03 in 10.0 mi NE 8.1 mph - N/A   Clear
11:34 PM 57.2 °F 42.8 °F 59% 30.02 in 10.0 mi NE 6.9 mph - N/A   Clear
11:54 PM 57.2 °F 42.8 °F 59% 30.02 in 10.0 mi NE 8.1 mph - N/A   Clear